Fort Mcmurray,

10:04 AM MST on December 18, 2017 (GMT -0700)
Fort Mcmurray

Weather History for CYMM - April, 2014

Change the Weather History Date:

Wednesday, April 30, 2014

  Actual Average Record
Temperature  
Mean Temperature 49 °F -  
Max Temperature 70 °F 51 °F 69 °F (2014)
Min Temperature 28 °F 28 °F 17 °F (2005)
Degree Days  
Heating Degree Days 16    
Moisture  
Dew Point 28 °F    
Average Humidity 45    
Maximum Humidity 86    
Minimum Humidity 10    
Precipitation  
Precipitation 0.00 in - - ()
Sea Level Pressure  
Sea Level Pressure 30.37 in    
Wind  
Wind Speed 4 mph ()    
Max Wind Speed 14 mph    
Max Gust Speed 20 mph    
Visibility 9.1 miles    
Events      
Averages and records for this station are not official NWS values.
T = Trace of Precipitation, MM = Missing Value Source: Averaged Metar Reports

Daily Weather History Graph

Daily Weather History Graph

Search for Another Location

Airport or City:

Trip Planner

Search our weather history database for the weather conditions in past years. The results will help you decide how hot, cold, wet, or windy it might be!

Date:

Astronomy

Apr. 30, 2014 Rise Set
Actual Time 5:40 AM MDT 9:05 PM MDT
Civil Twilight 4:54 AM MDT 9:50 PM MDT
Nautical Twilight 3:52 AM MDT 10:54 PM MDT
Astronomical Twilight 2:05 AM MDT 12:51 AM MDT
Moon 6:38 AM MDT (4/30) 10:57 PM MDT (4/30)
Length of Visible Light 16h 55m
Length of Day
15h 24m
Waxing Crescent, 3% of the Moon is Illuminated
Apr 30
Waxing Crescent
May 6
First Quarter
May 14
Full
May 21
Last Quarter
May 28
New

Hourly Weather History & Observations

Time (MDT) Temp. Windchill Dew Point Humidity Pressure Visibility Wind Dir Wind Speed Gust Speed Precip Events Conditions
12:00 AM 38 °F - 30 °F 65% 30.49 in 10 mi South 2.3 mph - -  
12:00 AM 37.4 °F - 30.2 °F 75% 30.49 in 9.0 mi Calm Calm - N/A   Clear
1:00 AM 41.0 °F - 28.4 °F 61% 30.50 in 9.0 mi SE 2.3 mph - N/A   Clear
2:00 AM 33.8 °F 30.8 °F 28.4 °F 81% 30.51 in 9.0 mi East 3.5 mph - N/A   Clear
3:00 AM 28.4 °F - 24.8 °F 86% 30.51 in 9.0 mi South 2.3 mph - N/A   Clear
4:00 AM 30.2 °F 26.7 °F 24.8 °F 80% 30.51 in 9.0 mi SSE 3.5 mph - N/A   Clear
5:00 AM 30.2 °F 25.4 °F 26.6 °F 86% 30.51 in 9.0 mi ESE 4.6 mph - N/A   Clear
6:00 AM 30 °F - 26 °F 79% 30.51 in 10 mi SE 2.3 mph - -  
6:00 AM 30.2 °F 25.4 °F 26.6 °F 86% 30.51 in 9.0 mi ESE 4.6 mph - N/A   Clear
7:00 AM 33.8 °F - 28.4 °F 81% 30.51 in 9.0 mi Calm Calm - N/A   Clear
8:00 AM 41.0 °F 39.0 °F 32.0 °F 70% 30.48 in 9.0 mi East 3.5 mph - N/A   Clear
9:00 AM 48.2 °F - 32.0 °F 54% 30.48 in 9.0 mi ENE 3.5 mph - N/A   Clear
10:00 AM 55.4 °F - 33.8 °F 44% 30.46 in 9.0 mi ENE 5.8 mph - N/A   Clear
11:00 AM 64.4 °F - 32.0 °F 30% 30.42 in 9.0 mi NNE 5.8 mph - N/A   Clear
12:00 PM 66 °F - 24 °F 10% 30.40 in 10 mi SSW 13.8 mph - -  
12:00 PM 66.2 °F - 23.0 °F 19% 30.40 in 9.0 mi SW 11.5 mph 19.6 mph N/A   Clear
1:00 PM 68.0 °F - 23.0 °F 18% 30.36 in 9.0 mi SSW 9.2 mph - N/A   Clear
2:00 PM 68.0 °F - 23.0 °F 18% 30.33 in 9.0 mi SSW 13.8 mph - N/A   Clear
3:00 PM 68.0 °F - 23.0 °F 18% 30.30 in 9.0 mi South 9.2 mph 17.3 mph N/A   Clear
4:00 PM 69.8 °F - 21.2 °F 16% 30.27 in 9.0 mi SSW 6.9 mph - N/A   Clear
5:00 PM 69.8 °F - 26.6 °F 20% 30.24 in 9.0 mi SW 9.2 mph - N/A   Mostly Cloudy
6:00 PM 69 °F - 25 °F 10% 30.20 in 10 mi South 11.5 mph - -  
6:00 PM 69.8 °F - 24.8 °F 18% 30.20 in 9.0 mi South 11.5 mph - N/A   Partly Cloudy
7:00 PM 69.8 °F - 28.4 °F 21% 30.17 in 9.0 mi South 9.2 mph - N/A   Mostly Cloudy
8:00 PM 66.2 °F - 30.2 °F 26% 30.15 in 9.0 mi SW 9.2 mph - N/A   Overcast
9:00 PM 62.6 °F - 30.2 °F 30% 30.13 in 9.0 mi South 6.9 mph - N/A   Overcast
10:00 PM 62.6 °F - 32.0 °F 32% 30.11 in 9.0 mi WSW 5.8 mph - N/A   Overcast
11:00 PM 57.2 °F - 32.0 °F 38% 30.08 in 9.0 mi SSE 5.8 mph - N/A   Overcast